Regional Weather Roundup
Issued by NWS

Home | Current Version | Previous Version | Graphics & Text | Print | Product List | Glossary On
Versions: 1 2 3 4 5 6 7 8 9 10 11 12 13 14 15 16 17 18 19 20 21 22 23 24 25 26 27 28 29 30 31 32 33 34 35 36 37 38 39 40 41 42 43 44 45 46 47 48 49 50
141
ASUS45 KABQ 200101
RWRNM
NEW MEXICO REGIONAL WEATHER ROUNDUP
NATIONAL WEATHER SERVICE ALBUQUERQUE NM
600 PM MST SUN NOV 19 2017

NOTE: "FAIR" MEANS FEW OR NO CLOUDS BELOW 12,000 FEET AGL WITH NO
       SIGNIFICANT WEATHER OR OBSTRUCTIONS TO VISION.

      THIS PRODUCT IS RELEASED AS TWO VERSIONS.  ONE VERSION NEAR
      THE TOP OF THE HOUR CONTAINING PRELIMINARY DATA FROM ALBUQUERQUE
      AND OTHER STATIONS.  A FINAL VERSION WITH ADDITIONAL DATA IS
      ISSUED ABOUT 10 MINUTES AFTER THE HOUR.

NMZ501-503-504-510>518-200200-
NORTHWEST PLATEAU/NORTHCENTRAL MOUNTAINS

CITY           SKY/WX    TMP DP  RH WIND       PRES   REMARKS
FARMINGTON     FAIR      38   9  30 CALM      30.17S
LOS ALAMOS     MOCLDY    42   9  25 SW6       30.17S
SANTA FE       FAIR      39  10  30 W3        30.15S
TAOS           FAIR      43   5  20 S5        30.19R
ANGEL FIRE     FAIR      32   6  34 CALM      30.19R

$$
NMZ402-403-502-505>509-200200-
WESTCENTRAL MOUNTAINS/SOUTHWEST MOUNTAINS

CITY           SKY/WX    TMP DP  RH WIND       PRES   REMARKS
GALLUP         FAIR      40   8  26 CALM      30.19R
GRANTS         FAIR      37   1  22 CALM      30.20R
SILVER CITY    FAIR      47  13  25 S3        30.16R

$$
NMZ407-409-411-412-200200-
SOUTHERN DESERTS

CITY           SKY/WX    TMP DP  RH WIND       PRES   REMARKS
DEMING         FAIR      50  13  22 E6        30.12S
LAS CRUCES     FAIR      47  14  27 S3        30.14R
HOLLOMAN AFB   FAIR      47  14  26 N6        30.16R
ALAMOGORDO     FAIR      48  14  25 N8        30.15R
T OR C         FAIR      53  10  18 CALM      30.13S

$$
NMZ519>523-200200-
CENTRAL VALLEYS/CENTRAL HIGHLANDS

CITY           SKY/WX    TMP DP  RH WIND       PRES   REMARKS
ALBUQUERQUE    MOCLDY    48   3  15 S5        30.15S
DOUBLE EAGLE   CLEAR     36   3  25 SW6       30.17S WCI  31
MORIARTY ARPT  FAIR      40  -4  15 CALM      30.16R
CLINES CORNERS FAIR      35   2  24 W10       30.16S WCI  27
BELEN          FAIR      43   7  22 CALM      30.16S
SOCORRO        FAIR      42   4  21 SW7       30.14S

$$
NMZ524>526-539-540-200200-
SOUTHCENTRAL MOUNTAINS

CITY           SKY/WX    TMP DP  RH WIND       PRES   REMARKS
RUIDOSO        FAIR      39  10  30 W3        30.19S

$$
NMZ527>531-200200-
NORTHEAST HIGHLANDS/NORTHEAST PLAINS

CITY           SKY/WX    TMP DP  RH WIND       PRES   REMARKS
LAS VEGAS      FAIR      37   8  30 S12       30.09S WCI  29
RATON          FAIR      42  11  28 W3        30.08R
CLAYTON        FAIR      33  14  45 S7        30.04F WCI  27

$$
NMZ532>537-200200-
EASTCENTRAL PLAINS

CITY           SKY/WX    TMP DP  RH WIND       PRES   REMARKS
SANTA ROSA     FAIR      47  13  25 S13       30.09R
TUCUMCARI      FAIR      48  12  23 SW8       30.06R
CANNON AFB     FAIR      42  13  30 S9        30.14R
CLOVIS AIRPORT FAIR      43  14  31 S13       30.13S

$$
NMZ028-029-538-200200-
SOUTHEAST PLAINS

CITY           SKY/WX    TMP DP  RH WIND       PRES   REMARKS
ROSWELL        FAIR      44  15  31 S5        30.13S
ARTESIA        FAIR      45  18  33 S10       30.14F
CARLSBAD       FAIR      45  23  42 SE7       30.14S
HOBBS          CLEAR     39  16  38 S8        30.17F WCI  34


$$




USA.gov is the U.S. government's official web portal to all federal, state and local government web resources and services.